Location: Aucun
(42.9667°N, 0.1667°W)
Time: 18:00:21
(UTC+00:00)

Meteor 2-3 Rocket - Pass Details

Date: 17 February 2020
Orbit: 842 x 885 km, 81.3° (Epoch: 27 March)

Event Time Altitude Azimuth Distance (km) Brightness Sun altitude
Rises 04:58:39 0° 349° (N) 3,461 6.8 -22.1°
Reaches altitude 10° 05:01:05 10° 349° (N) 2,526 6.1 -21.7°
Maximum altitude 05:06:50 88° 261° (W) 883 3.7 -20.6°
Drops below altitude 10° 05:12:37 10° 173° (S) 2,532 6.2 -19.6°
Sets 05:15:03 0° 173° (S) 3,469 7.0 -19.1°
